Regional Weather Roundup
Issued by NWS

Home | Current Version | Previous Version | Text Only | Print | Product List | Glossary On
Versions: 1 2 3 4 5 6 7 8 9 10 11 12 13 14 15 16 17 18 19 20 21 22 23 24 25 26 27 28 29 30 31 32 33 34 35 36 37 38 39 40 41 42 43 44 45 46 47 48 49 50
915
ASUS43 KMPX 291810
RWRMN
WEATHER ROUNDUP FOR MINNESOTA
NATIONAL WEATHER SERVICE TWIN CITIES/CHANHASSEN MN
100 PM CDT FRI JUL 29 2016


NOTE: "FAIR" INDICATES FEW OR NO CLOUDS BELOW 12,000 FEET WITH NO
SIGNIFICANT WEATHER AND/OR OBSTRUCTIONS TO VISIBILITY. N/A MEANS
CURRENT SKY AND/OR WEATHER CONDITIONS ARE NOT AVAILABLE.

MNZ060>063-068>070-291900-
   Twin Cities Metro

CITY           SKY/WX    TMP DP  RH WIND       PRES   REMARKS
TWIN CITIES    SUNNY     76  50  40 NE13      30.07F
6HR MIN TEMP:  62; 6HR MAX TEMP:  76;

ST PAUL        SUNNY     74  50  42 N6        30.07F
CRYSTAL        SUNNY     75  49  39 N10       30.06F
BLAINE         MOSUNNY   75  52  43 E8        30.08S
LAKEVILLE      MOSUNNY   73  57  56 N6        30.07F
EDEN PRAIRIE   SUNNY     77  49  37 NE8       30.06F
6HR MIN TEMP:  62; 6HR MAX TEMP:  78;

LAKEVILLE      MOSUNNY   73  57  56 N6        30.07F
SOUTH ST PAUL  SUNNY     74  49  40 NE7       30.07S
LAKE ELMO      FAIR      73  52  46 NE8       30.08F
$$
MNZ001>005-007-008-013>017-022>024-027-028-291900-
   Northwest Minnesota

CITY           SKY/WX    TMP DP  RH WIND       PRES   REMARKS
BEMIDJI        CLOUDY    77  55  47 CALM      30.09S
HALLOCK        SUNNY     75  55  50 CALM      30.07S
ROSEAU         SUNNY     77  63  61 S5        30.07F
WARROAD        SUNNY     73  64  73 NE7       30.08F
THIEF RVR FALL MOSUNNY   75  55  49 SE8       30.09F
CROOKSTON      MOSUNNY   75  57  53 CALM      30.08F
FOSSTON        SUNNY     75  54  46 CALM      30.09F
DETROIT LAKES  MOSUNNY   77  59  53 W8        30.10S
MOORHEAD       CLOUDY    75  55  50 N3        30.09S
PARK RAPIDS    PTSUNNY   79  58  48 S8        30.09F
MAHNOMEN       MOCLDY    73  56  53 N3        30.09S
$$
MNZ006-009>011-018-025>026-291900-
   North Central Minnesota

CITY           SKY/WX    TMP DP  RH WIND       PRES   REMARKS
BAUDETTE       MOSUNNY   75  54  47 CALM      30.08S
FLAG ISLAND    SUNNY     73  50  43 SE5       30.07F
INTL FALLS     CLOUDY    74  56  53 CALM      30.09R
6HR MIN TEMP:  54; 6HR MAX TEMP:  76;

WASKISH        SUNNY     75  64  69 W8        30.08S
BIG FORK       SUNNY     77  57  50 S5        30.10F
LONGVILLE      PTSUNNY   73  55  53 SW7       30.11S
GRAND RAPIDS   MOSUNNY   74  55  51 VRB5      30.13S
CRANE LAKE     MOSUNNY   73  52  46 S5        30.11F
ORR            MOSUNNY   73  52  46 CALM      30.08F
COOK           MOSUNNY   73  54  49 S3        30.11S
WALKER         MOCLDY    71  58  64 SE3       30.09F
$$
MNZ012-019>021-037-291900-
   Northeast Minnesota

CITY           SKY/WX    TMP DP  RH WIND       PRES   REMARKS
DULUTH         MOSUNNY   71  50  47 SE10      30.12S
6HR MIN TEMP:  56; 6HR MAX TEMP:  71;

ELY            SUNNY     73  48  40 CALM      30.11S
HIBBING        PTSUNNY   70  52  52 S3        30.11S
EVELETH        PTSUNNY   75  47  36 SW3       30.12S
DULUTH HARBOR  SUNNY     68  57  68 NE5       30.12S
TWO HARBORS    SUNNY     75  55  50 E5        30.10S
SILVER BAY     SUNNY     72  54  53 E5        30.10S
GRAND MARAIS     N/A     69  56  62 SE3       30.10F
G MARAIS ARPRT MOSUNNY   70  48  46 SE6       30.14S
$$
MNZ029>031-032-039>041-046>048-054>057-064-291900-
   West Central Minnesota

CITY           SKY/WX    TMP DP  RH WIND       PRES   REMARKS
FERGUS FALLS   PTSUNNY   73  63  68 SW7       30.09F
WHEATON        MOSUNNY   77  64  65 SE7       30.11F
MORRIS         MOSUNNY   79  59  50 S5        30.10S
ALEXANDRIA     MOSUNNY   75  55  49 VRB5      30.13S
ELBOW LAKE     PTSUNNY   74  62  64 W6        30.11S
WADENA         MOSUNNY   73  61  64 SW5       30.10S
GLENWOOD       MOSUNNY   75  54  46 SE3       30.12F
APPLETON       MOSUNNY   77  57  50 SE6       30.10F
BENSON         SUNNY     75  46  35 E5        30.10F
ORTONVILLE     CLOUDY    75  59  57 CALM      30.10F
MADISON        SUNNY     75  55  50 NE3       30.10F
WILLMAR        FAIR      75  55  50 E3        30.12F
$$
MNZ033>034-036-042>043-049>051-058-059-291900-
   Central Minnesota

CITY           SKY/WX    TMP DP  RH WIND       PRES   REMARKS
ST CLOUD       MOSUNNY   75  54  47 VRB6      30.10F
6HR MIN TEMP:  56; 6HR MAX TEMP:  75;

SAUK CENTRE    FAIR      74  55  51 CALM      30.12S
PAYNESVILLE    MOSUNNY   74  51  44 E5        30.12S
AITKIN         MOSUNNY   75  50  41 CALM      30.10S
PINE RIVER     SUNNY     73  57  56 SE5       30.14S
BRAINERD       MOSUNNY   73  54  51 SE6       30.11S
STAPLES        MOSUNNY   75  55  50 S5        30.11S
LONG PRAIRIE   FAIR      72  54  53 CALM      30.13S
LITTLE FALLS   SUNNY     72  50  46 E5        30.12F
LITCHFIELD     SUNNY     73  55  53 NE6       30.11F
BUFFALO        SUNNY     74  51  44 NE7       30.11S
MAPLE LAKE     SUNNY     75  55  49 NE7       30.10F
HUTCHINSON     SUNNY     75  56  52 N8        30.11S
$$
MNZ037-044-045-052-053-291900-
   East Central Minnesota

CITY           SKY/WX    TMP DP  RH WIND       PRES   REMARKS
PRINCETON      SUNNY     75  48  38 N9        30.10F
MORA           SUNNY     70  52  52 CALM      30.12F
CAMBRIDGE      SUNNY     73  54  49 N3        30.08F
RUSH CITY      SUNNY     73  51  46 E6        30.10S
MOOSE LAKE     SUNNY     72  48  43 NE5       30.09S
HINCKLEY       FAIR      73  52  46 CALM      30.11S
CLOQUET        SUNNY     72  46  40 NE3       30.12S
MCGREGOR       PTSUNNY   73  54  49 E6        30.12S
$$
MNZ071>073-080-081-089-090-097-098-291900-
   Southwest Minnesota

CITY           SKY/WX    TMP DP  RH WIND       PRES   REMARKS
MONTEVIDEO     SUNNY     79  57  47 E3        30.12F
GRANITE FALLS  SUNNY     76  60  56 E5        30.11F
CANBY          SUNNY     77  53  42 NE3       30.12F
MARSHALL       SUNNY     74  55  51 VRB5      30.11F
REDWOOD FALLS  SUNNY     77  53  43 NE8       30.09F
OLIVIA         SUNNY     73  54  49 E3        30.09F
PIPESTONE      SUNNY     75  54  46 NE6       30.11F
WINDOM         MOSUNNY   73  57  56 N10       30.09F
WORTHINGTON    PTSUNNY   73  60  63 VRB7      30.10F
JACKSON        PTSUNNY   72  59  64 N7        30.09F
TRACY          MOSUNNY   74  60  60 NE6       30.11S
SLAYTON        MOSUNNY   74  59  60 NE9       30.11F
$$
MNZ065>067-074>077-082>085-091>093-291900-
   South Central Minnesota

CITY           SKY/WX    TMP DP  RH WIND       PRES   REMARKS
MANKATO        PTSUNNY   73  57  56 N9        30.07F
NEW ULM        SUNNY     75  52  43 NE13      30.07F
ST JAMES       MOSUNNY   70  54  56 N10       30.08S
FAIRMONT       PTSUNNY   73  63  68 NE7       30.06F
GLENCOE        SUNNY     75  58  54 NE5       30.09S
FARIBAULT      MOSUNNY   73  61  64 N6        30.07S
OWATONNA       MOSUNNY   73  59  60 N6        30.06F
WASECA         CLOUDY    72  61  68 N8        30.08S
ALBERT LEA     PTSUNNY   72  63  73 NE8       30.06S
$$
MNZ078>079-086>088-094>096-291900-
   Southeast Minnesota

CITY           SKY/WX    TMP DP  RH WIND       PRES   REMARKS
ROCHESTER      CLOUDY    71  61  70 N10       30.06F
6HR MIN TEMP:  63; 6HR MAX TEMP:  72; 6HR PCP: TRACE;

RED WING       PTSUNNY   75  54  46 E5        30.05S
STANTON        PTSUNNY   73  59  60 N6        30.06S
DODGE CENTER   CLOUDY    73  55  53 N12       30.06F
WINONA         CLOUDY    73  59  60 N6        30.04F
AUSTIN         CLOUDY    72  61  68 N7        30.05F
PRESTON        MOSUNNY   69  59  69 NE10      30.05F
$$
ABBREVIATIONS USED IN REMARKS
   TC - TEMPERATURES IN CELSIUS
  WCI - WIND CHILL INDEX
   HX - HEAT INDEX
  VSB - VISIBILITY
$$




USA.gov is the U.S. government's official web portal to all federal, state and local government web resources and services.